EW3393 Weather Reports


Display with metric or nautical units.
time (UTC)temp
F
wind
direction
speed
MPH
gust
MPH
rain 1hr
in
rain 24hr
in
rain mn
in
humidity
%
barometer
mb
20260905014325 90 259 17.0 23.0 0.00 0.00 0.00 16 1008.2
20260905013818 91 316 15.0 26.0 0.00 0.00 0.00 16 1008.2
20260905013328 91 265 18.0 26.0 0.00 0.00 0.00 16 1008.1
20260905012822 91 251 18.0 26.0 0.00 0.00 0.00 16 1008.1
20260905012317 91 268 21.0 27.0 0.00 0.00 0.00 15 1008.2
20260905011831 92 255 17.0 29.0 0.00 0.00 0.00 15 1008.2
20260905011323 92 259 22.0 29.0 0.00 0.00 0.00 15 1008.1
20260905010836 92 268 21.0 28.0 0.00 0.00 0.00 15 1008.2
20260905010328 92 262 18.0 26.0 0.00 0.00 0.00 15 1008.2
20260905005836 93 264 21.0 26.0 0.00 0.00 0.00 15 1008.2
20260905005327 93 246 20.0 26.0 0.00 0.00 0.00 15 1008.1
20260905004839 93 255 21.0 27.0 0.00 0.00 0.00 15 1008.1
20260905004329 94 271 17.0 24.0 0.00 0.00 0.00 14 1008.1
20260905003821 94 267 16.0 20.0 0.00 0.00 0.00 14 1008.2
20260905003316 95 265 14.0 19.0 0.00 0.00 0.00 14 1008.2
20260905002827 95 246 15.0 19.0 0.00 0.00 0.00 14 1008.2
20260905002318 94 297 13.0 18.0 0.00 0.00 0.00 14 1008.2
20260905001851 94 258 12.0 18.0 0.00 0.00 0.00 14 1008.1
20260905001323 94 256 15.0 18.0 0.00 0.00 0.00 14 1008.1
20260905000836 94 295 10.0 19.0 0.00 0.00 0.00 14 1008.2
20260905000325 95 348 16.0 19.0 0.00 0.00 0.00 13 1008.2
20260904235814 95 236 8.0 16.0 0.00 0.00 0.00 14 1008.2
20260904235345 95 278 10.0 15.0 0.00 0.00 0.00 14 1008.3
20260904234816 95 264 8.0 14.0 0.00 0.00 0.00 14 1008.2
20260904234331 95 257 11.0 17.0 0.00 0.00 0.00 14 1008.3
20260904233824 95 255 14.0 18.0 0.00 0.00 0.00 14 1008.3
20260904233316 96 232 13.0 18.0 0.00 0.00 0.00 13 1008.3
20260904232829 95 242 11.0 19.0 0.00 0.00 0.00 14 1008.2
20260904232321 95 274 11.0 19.0 0.00 0.00 0.00 14 1008.2
20260904231814 96 303 9.0 17.0 0.00 0.00 0.00 14 1008.2
20260904231326 96 246 10.0 17.0 0.00 0.00 0.00 14 1008.3
20260904230818 95 337 10.0 13.0 0.00 0.00 0.00 14 1008.3
20260904230313 95 257 7.0 13.0 0.00 0.00 0.00 14 1008.4
20260904225822 95 317 5.0 9.0 0.00 0.00 0.00 15 1008.4
20260904225314 95 239 2.0 13.0 0.00 0.00 0.00 15 1008.5
20260904224827 95 315 9.0 13.0 0.00 0.00 0.00 15 1008.5
20260904224337 95 329 5.0 10.0 0.00 0.00 0.00 15 1008.5
20260904223827 95 194 6.0 10.0 0.00 0.00 0.00 16 1008.6
20260904223317 95 296 5.0 14.0 0.00 0.00 0.00 15 1008.6
20260904222830 96 265 9.0 13.0 0.00 0.00 0.00 15 1008.7
20260904222321 96 180 5.0 12.0 0.00 0.00 0.00 16 1008.7
20260904221814 95 252 9.0 12.0 0.00 0.00 0.00 15 1008.7
20260904221326 96 208 7.0 9.0 0.00 0.00 0.00 15 1008.8
20260904220842 96 118 4.0 9.0 0.00 0.00 0.00 14 1008.8
20260904220313 96 20 1.0 8.0 0.00 0.00 0.00 14 1008.8
20260904215823 96 221 2.0 9.0 0.00 0.00 0.00 14 1008.8
20260904215313 95 207 7.0 8.0 0.00 0.00 0.00 14 1008.9
20260904214846 95 96 3.0 10.0 0.00 0.00 0.00 14 1009.0
20260904214317 96 132 3.0 7.0 0.00 0.00 0.00 14 1009.0
20260904213830 96 93 2.0 9.0 0.00 0.00 0.00 14 1009.2
20260904213321 95 145 6.0 9.0 0.00 0.00 0.00 14 1009.2
20260904212813 95 149 5.0 9.0 0.00 0.00 0.00 14 1009.2
20260904212328 95 128 5.0 10.0 0.00 0.00 0.00 14 1009.2
20260904211821 96 163 5.0 9.0 0.00 0.00 0.00 14 1009.2
20260904211332 95 169 6.0 10.0 0.00 0.00 0.00 15 1009.2
20260904210826 95 159 4.0 10.0 0.00 0.00 0.00 15 1009.2
20260904210317 94 149 5.0 8.0 0.00 0.00 0.00 15 1009.2
20260904205827 94 229 4.0 12.0 0.00 0.00 0.00 15 1009.4
20260904205319 94 263 8.0 10.0 0.00 0.00 0.00 15 1009.4
20260904204832 94 248 3.0 8.0 0.00 0.00 0.00 15 1009.5
20260904204327 93 185 3.0 6.0 0.00 0.00 0.00 16 1009.4
20260904203820 93 38 3.0 10.0 0.00 0.00 0.00 15 1009.4
20260904203332 94 186 3.0 10.0 0.00 0.00 0.00 15 1009.5
20260904202825 94 84 4.0 11.0 0.00 0.00 0.00 15 1009.5
20260904202317 94 139 8.0 11.0 0.00 0.00 0.00 16 1009.5
20260904201830 93 185 5.0 7.0 0.00 0.00 0.00 17 1009.5
20260904201321 93 152 2.0 7.0 0.00 0.00 0.00 16 1009.6
20260904200814 93 172 5.0 9.0 0.00 0.00 0.00 17 1009.7
20260904200345 92 234 2.0 8.0 0.00 0.00 0.00 17 1009.7
20260904195820 92 196 5.0 10.0 0.00 0.00 0.00 17 1009.8
20260904195331 92 128 5.0 10.0 0.00 0.00 0.00 18 1009.9
20260904194824 92 132 4.0 10.0 0.00 0.00 0.00 18 1010.0
20260904194316 91 5 3.0 11.0 0.00 0.00 0.00 17 1010.0
20260904193828 91 213 6.0 10.0 0.00 0.00 0.00 17 1010.0
20260904193319 91 232 4.0 10.0 0.00 0.00 0.00 17 1010.1
20260904192813 91 228 4.0 8.0 0.00 0.00 0.00 17 1010.2
20260904192326 91 224 6.0 9.0 0.00 0.00 0.00 17 1010.3
20260904191824 91 330 1.0 9.0 0.00 0.00 0.00 18 1010.4
20260904191316 91 161 4.0 6.0 0.00 0.00 0.00 18 1010.5
20260904190829 91 111 3.0 8.0 0.00 0.00 0.00 18 1010.5
20260904190320 90 146 5.0 9.0 0.00 0.00 0.00 18 1010.6
20260904185828 90 197 3.0 8.0 0.00 0.00 0.00 19 1010.7
20260904185319 90 205 6.0 8.0 0.00 0.00 0.00 19 1010.7
20260904184853 90 196 3.0 8.0 0.00 0.00 0.00 20 1010.7
20260904184323 90 290 3.0 9.0 0.00 0.00 0.00 19 1010.8
20260904183838 90 162 5.0 11.0 0.00 0.00 0.00 21 1010.8
20260904183329 90 260 5.0 11.0 0.00 0.00 0.00 20 1010.8
20260904182825 89 191 4.0 10.0 0.00 0.00 0.00 20 1010.8
20260904182336 89 190 4.0 10.0 0.00 0.00 0.00 20 1010.8
20260904181828 89 211 2.0 8.0 0.00 0.00 0.00 20 1010.9
20260904181341 89 187 5.0 9.0 0.00 0.00 0.00 20 1010.9
20260904180813 89 192 5.0 10.0 0.00 0.00 0.00 21 1010.9
20260904180324 89 194 6.0 11.0 0.00 0.00 0.00 20 1011.0
20260904175834 88 198 6.0 11.0 0.00 0.00 0.00 21 1010.9
20260904175325 87 211 2.0 8.0 0.00 0.00 0.00 20 1010.9
20260904174818 87 326 5.0 9.0 0.00 0.00 0.00 20 1010.9
20260904174329 87 250 4.0 9.0 0.00 0.00 0.00 20 1010.9
20260904173821 86 265 7.0 9.0 0.00 0.00 0.00 20 1010.9
20260904173316 86 241 6.0 9.0 0.00 0.00 0.00 20 1010.9
20260904172830 86 218 7.0 9.0 0.00 0.00 0.00 20 1010.9
20260904172342 86 230 7.0 10.0 0.00 0.00 0.00 21 1010.9
20260904171832 86 227 5.0 9.0 0.00 0.00 0.00 19 1010.9
20260904171343 86 239 6.0 9.0 0.00 0.00 0.00 20 1010.9
20260904170834 85 251 4.0 11.0 0.00 0.00 0.00 20 1010.9
20260904170325 85 293 8.0 11.0 0.00 0.00 0.00 19 1010.9
20260904165814 85 298 4.0 12.0 0.00 0.00 0.00 20 1010.9
20260904165326 85 250 5.0 12.0 0.00 0.00 0.00 20 1010.9
20260904164820 84 287 8.0 11.0 0.00 0.00 0.00 20 1010.9
20260904164315 84 298 6.0 11.0 0.00 0.00 0.00 20 1010.9
20260904163828 84 293 8.0 11.0 0.00 0.00 0.00 20 1010.8
20260904163319 83 267 8.0 13.0 0.00 0.00 0.00 21 1010.8
20260904162832 83 280 9.0 13.0 0.00 0.00 0.00 21 1010.7
20260904162324 83 311 9.0 14.0 0.00 0.00 0.00 21 1010.6
20260904161818 82 275 11.0 15.0 0.00 0.00 0.00 21 1010.5
20260904161349 82 310 11.0 15.0 0.00 0.00 0.00 22 1010.5
20260904160821 82 316 12.0 15.0 0.00 0.00 0.00 22 1010.4
20260904160333 81 302 10.0 16.0 0.00 0.00 0.00 22 1010.4
20260904155826 81 288 12.0 16.0 0.00 0.00 0.00 22 1010.4
20260904155317 81 298 12.0 16.0 0.00 0.00 0.00 22 1010.3
20260904154831 80 272 12.0 18.0 0.00 0.00 0.00 22 1010.3
20260904154322 80 280 15.0 18.0 0.00 0.00 0.00 23 1010.3
20260904153816 80 279 13.0 19.0 0.00 0.00 0.00 23 1010.1
20260904153328 80 271 14.0 19.0 0.00 0.00 0.00 23 1010.2
20260904152820 79 266 14.0 18.0 0.00 0.00 0.00 22 1010.2
20260904152312 79 279 13.0 20.0 0.00 0.00 0.00 21 1010.1
20260904151830 79 273 16.0 20.0 0.00 0.00 0.00 21 1010.1
20260904151323 79 244 15.0 19.0 0.00 0.00 0.00 20 1010.1
20260904150817 79 277 13.0 17.0 0.00 0.00 0.00 21 1010.0
20260904150329 78 290 13.0 17.0 0.00 0.00 0.00 21 1010.1
20260904145816 78 253 14.0 19.0 0.00 0.00 0.00 22 1010.0
20260904145347 77 267 13.0 19.0 0.00 0.00 0.00 23 1009.9
20260904144819 77 252 14.0 19.0 0.00 0.00 0.00 24 1009.8
20260904144331 76 255 13.0 19.0 0.00 0.00 0.00 24 1009.8
20260904143825 76 282 11.0 18.0 0.00 0.00 0.00 25 1009.8
20260904143322 76 283 13.0 19.0 0.00 0.00 0.00 25 1009.8
20260904142816 76 284 15.0 19.0 0.00 0.00 0.00 23 1009.6
20260904142348 76 277 13.0 17.0 0.00 0.00 0.00 24 1009.6
20260904141821 76 284 11.0 15.0 0.00 0.00 0.00 24 1009.5
20260904141314 75 282 11.0 16.0 0.00 0.00 0.00 24 1009.4
20260904140828 75 273 12.0 16.0 0.00 0.00 0.00 24 1009.3
20260904140319 74 298 11.0 14.0 0.00 0.00 0.00 25 1009.2
20260904135828 74 301 11.0 15.0 0.00 0.00 0.00 25 1009.2
20260904135319 74 279 12.0 16.0 0.00 0.00 0.00 25 1009.1
20260904134817 74 275 12.0 15.0 0.00 0.00 0.00 25 1009.0
20260904134328 74 277 10.0 15.0 0.00 0.00 0.00 25 1008.9
20260904133820 74 280 11.0 15.0 0.00 0.00 0.00 25 1008.9
20260904133331 74 291 12.0 15.0 0.00 0.00 0.00 25 1008.9
20260904132825 74 290 12.0 15.0 0.00 0.00 0.00 25 1008.8
20260904132336 74 296 11.0 18.0 0.00 0.00 0.00 24 1008.8
20260904131827 74 308 13.0 18.0 0.00 0.00 0.00 24 1008.7
20260904131319 75 292 13.0 18.0 0.00 0.00 0.00 23 1008.6
20260904130832 75 312 15.0 18.0 0.00 0.00 0.00 22 1008.5
20260904130327 75 302 13.0 18.0 0.00 0.00 0.00 22 1008.6
20260904125816 75 294 14.0 18.0 0.00 0.00 0.00 22 1008.5
20260904125327 75 295 12.0 16.0 0.00 0.00 0.00 22 1008.4
20260904124818 75 299 13.0 19.0 0.00 0.00 0.00 22 1008.4
20260904124327 76 302 14.0 19.0 0.00 0.00 0.00 22 1008.4
20260904123819 76 299 13.0 21.0 0.00 0.00 0.00 22 1008.4
20260904123331 76 291 16.0 21.0 0.00 0.00 0.00 22 1008.4
20260904122843 76 300 15.0 21.0 0.00 0.00 0.00 22 1008.4
20260904122313 76 306 15.0 23.0 0.00 0.00 0.00 23 1008.4
20260904121848 75 314 15.0 20.0 0.00 0.00 0.00 24 1008.3
20260904121318 75 302 11.0 16.0 0.00 0.00 0.00 25 1008.4
20260904120815 75 314 12.0 17.0 0.00 0.00 0.00 25 1008.4
20260904120326 75 304 13.0 16.0 0.00 0.00 0.00 25 1008.4
20260904115815 76 310 13.0 19.0 0.00 0.00 0.00 26 1008.4
20260904115325 76 281 14.0 19.0 0.00 0.00 0.00 26 1008.4
20260904114837 76 295 13.0 26.0 0.00 0.00 0.00 25 1008.5
20260904114347 76 291 16.0 26.0 0.00 0.00 0.00 25 1008.4
20260904113839 76 278 15.0 24.0 0.00 0.00 0.00 26 1008.4
20260904113329 76 265 15.0 27.0 0.00 0.00 0.00 26 1008.5
20260904112820 77 264 16.0 27.0 0.00 0.00 0.00 25 1008.4
20260904112331 77 279 17.0 28.0 0.00 0.00 0.00 24 1008.4
20260904111844 77 273 20.0 28.0 0.00 0.00 0.00 23 1008.4
20260904111317 77 270 18.0 24.0 0.00 0.00 0.00 23 1008.3
20260904110830 76 288 11.0 14.0 0.00 0.00 0.00 24 1008.3
20260904110322 76 306 10.0 14.0 0.00 0.00 0.00 23 1008.3
20260904105831 76 307 10.0 15.0 0.00 0.00 0.00 22 1008.2
20260904105323 76 313 10.0 15.0 0.00 0.00 0.00 22 1008.2
20260904104817 77 279 11.0 17.0 0.00 0.00 0.00 22 1008.1
20260904104328 77 273 13.0 19.0 0.00 0.00 0.00 23 1008.1
20260904103820 77 270 15.0 19.0 0.00 0.00 0.00 24 1008.1
20260904103330 75 287 14.0 19.0 0.00 0.00 0.00 26 1008.1
20260904102842 75 312 10.0 14.0 0.00 0.00 0.00 27 1008.1
20260904102316 75 286 10.0 17.0 0.00 0.00 0.00 27 1008.0
20260904101828 75 267 13.0 18.0 0.00 0.00 0.00 28 1007.9
20260904101340 75 256 12.0 18.0 0.00 0.00 0.00 28 1007.9
20260904100832 75 270 13.0 20.0 0.00 0.00 0.00 28 1007.9
20260904100324 75 291 15.0 21.0 0.00 0.00 0.00 29 1007.8
20260904095853 75 274 15.0 21.0 0.00 0.00 0.00 29 1007.8
20260904095322 75 277 15.0 18.0 0.00 0.00 0.00 30 1007.8
20260904094814 76 288 15.0 20.0 0.00 0.00 0.00 30 1007.7
20260904094325 77 265 15.0 21.0 0.00 0.00 0.00 30 1007.8
20260904093822 77 294 15.0 21.0 0.00 0.00 0.00 30 1007.7
20260904093314 77 291 17.0 23.0 0.00 0.00 0.00 30 1007.8
20260904092827 77 299 17.0 23.0 0.00 0.00 0.00 30 1007.7
20260904092319 77 314 16.0 22.0 0.00 0.00 0.00 31 1007.8
20260904091813 77 291 16.0 21.0 0.00 0.00 0.00 31 1007.8
20260904091325 77 319 16.0 21.0 0.00 0.00 0.00 32 1007.9
20260904090838 77 320 18.0 21.0 0.00 0.00 0.00 32 1007.8
20260904090328 76 313 15.0 21.0 0.00 0.00 0.00 32 1007.9
20260904085817 77 300 17.0 24.0 0.00 0.00 0.00 32 1008.0
20260904085333 77 311 15.0 24.0 0.00 0.00 0.00 32 1008.1
20260904084826 77 292 16.0 25.0 0.00 0.00 0.00 32 1008.1
20260904084336 77 303 18.0 24.0 0.00 0.00 0.00 32 1008.2
20260904083828 77 289 19.0 25.0 0.00 0.00 0.00 32 1008.2
20260904083321 77 283 18.0 25.0 0.00 0.00 0.00 32 1008.2
20260904082813 77 291 20.0 26.0 0.00 0.00 0.00 32 1008.2
20260904082324 76 316 17.0 26.0 0.00 0.00 0.00 32 1008.3
20260904081837 76 290 20.0 24.0 0.00 0.00 0.00 33 1008.3
20260904081326 76 299 19.0 24.0 0.00 0.00 0.00 33 1008.3
20260904080822 76 309 18.0 25.0 0.00 0.00 0.00 33 1008.4
20260904080313 76 294 19.0 25.0 0.00 0.00 0.00 34 1008.5
20260904075843 76 279 19.0 24.0 0.00 0.00 0.00 35 1008.4
20260904075334 76 288 18.0 26.0 0.00 0.00 0.00 35 1008.4
20260904074827 76 304 20.0 26.0 0.00 0.00 0.00 36 1008.4
20260904074339 76 286 20.0 28.0 0.00 0.00 0.00 37 1008.5
20260904073852 76 296 20.0 27.0 0.00 0.00 0.00 38 1008.4
20260904073343 76 305 17.0 27.0 0.00 0.00 0.00 38 1008.5
20260904072815 76 274 18.0 28.0 0.00 0.00 0.00 41 1008.4
20260904072327 76 302 21.0 28.0 0.00 0.00 0.00 41 1008.4
20260904071817 76 290 19.0 32.0 0.00 0.00 0.00 43 1008.3
20260904071347 76 281 18.0 32.0 0.00 0.00 0.00 44 1008.3
20260904070816 76 286 19.0 26.0 0.00 0.00 0.00 44 1008.3
20260904070328 76 273 19.0 27.0 0.00 0.00 0.00 45 1008.3
20260904065821 76 287 21.0 32.0 0.00 0.00 0.00 45 1008.2
20260904065332 76 275 22.0 32.0 0.00 0.00 0.00 45 1008.1
20260904064825 76 285 19.0 26.0 0.00 0.00 0.00 45 1008.3
20260904064337 76 285 18.0 28.0 0.00 0.00 0.00 45 1008.2
20260904063828 76 300 21.0 31.0 0.00 0.00 0.00 45 1008.2
20260904063318 76 308 23.0 33.0 0.00 0.00 0.00 45 1008.2
20260904062833 76 266 24.0 34.0 0.00 0.00 0.00 44 1008.2
20260904062324 76 263 24.0 34.0 0.00 0.00 0.00 44 1008.2
20260904061837 76 275 22.0 34.0 0.00 0.00 0.00 43 1008.2
20260904061330 76 301 27.0 34.0 0.00 0.00 0.00 42 1008.2
20260904060842 76 286 24.0 34.0 0.00 0.00 0.00 41 1008.2
20260904060332 76 295 27.0 34.0 0.00 0.00 0.00 41 1008.3
20260904055822 76 302 23.0 35.0 0.00 0.00 0.00 41 1008.3
20260904055313 76 300 22.0 35.0 0.00 0.00 0.00 41 1008.2
20260904054826 76 286 25.0 34.0 0.00 0.00 0.00 41 1008.3
20260904054317 77 292 25.0 34.0 0.00 0.00 0.00 41 1008.3
20260904053849 77 307 23.0 31.0 0.00 0.00 0.00 40 1008.3
20260904053319 77 292 21.0 29.0 0.00 0.00 0.00 40 1008.2
20260904052817 77 288 24.0 29.0 0.00 0.00 0.00 40 1008.2
20260904052329 77 306 19.0 27.0 0.00 0.00 0.00 39 1008.2
20260904051822 77 292 17.0 25.0 0.00 0.00 0.00 39 1008.3
20260904051314 77 296 20.0 25.0 0.00 0.00 0.00 39 1008.3
20260904050826 77 284 19.0 25.0 0.00 0.00 0.00 38 1008.3
20260904050336 78 295 20.0 29.0 0.00 0.00 0.00 38 1008.3
20260904045825 78 285 22.0 29.0 0.00 0.00 0.00 38 1008.3
20260904045335 78 288 20.0 29.0 0.00 0.00 0.00 38 1008.3
20260904044827 78 284 19.0 28.0 0.00 0.00 0.00 38 1008.4
20260904044338 78 296 19.0 26.0 0.00 0.00 0.00 38 1008.3
20260904043814 78 296 19.0 28.0 0.00 0.00 0.00 37 1008.4
20260904043325 78 290 21.0 28.0 0.00 0.00 0.00 37 1008.4
20260904042818 78 294 20.0 25.0 0.00 0.00 0.00 36 1008.4
20260904042329 78 273 20.0 27.0 0.00 0.00 0.00 36 1008.3
20260904041822 79 306 20.0 25.0 0.00 0.00 0.00 36 1008.4
20260904041314 79 284 18.0 26.0 0.00 0.00 0.00 35 1008.5
20260904040828 79 305 19.0 26.0 0.00 0.00 0.00 35 1008.4
20260904040319 79 290 19.0 26.0 0.00 0.00 0.00 34 1008.3
20260904035828 79 281 19.0 30.0 0.00 0.00 0.00 34 1008.2
20260904035319 79 306 20.0 30.0 0.00 0.00 0.00 34 1008.2
20260904034816 80 325 19.0 29.0 0.00 0.00 0.00 34 1008.1
20260904034328 80 305 17.0 26.0 0.00 0.00 0.00 33 1008.0
20260904033820 80 315 21.0 27.0 0.00 0.00 0.00 33 1008.0
20260904033351 80 304 17.0 27.0 0.00 0.00 0.00 33 1008.0
20260904032823 81 319 21.0 26.0 0.00 0.00 0.00 33 1007.9
20260904032333 81 311 18.0 29.0 0.00 0.00 0.00 32 1007.8
20260904031825 81 309 18.0 27.0 0.00 0.00 0.00 32 1007.7
20260904031315 81 300 19.0 28.0 0.00 0.00 0.00 32 1007.7
20260904030849 81 317 20.0 28.0 0.00 0.00 0.00 32 1007.6
20260904030319 82 293 19.0 29.0 0.00 0.00 0.00 32 1007.5
20260904025813 82 292 22.0 29.0 0.00 0.00 0.00 32 1007.5
20260904025325 82 291 21.0 25.0 0.00 0.00 0.00 31 1007.5
20260904024818 82 300 19.0 26.0 0.00 0.00 0.00 31 1007.4
20260904024329 83 291 17.0 26.0 0.00 0.00 0.00 31 1007.4
20260904023822 83 310 19.0 26.0 0.00 0.00 0.00 31 1007.3
20260904023313 83 306 19.0 26.0 0.00 0.00 0.00 30 1007.3
20260904022845 84 304 19.0 28.0 0.00 0.00 0.00 30 1007.3
20260904022314 84 290 19.0 29.0 0.00 0.00 0.00 29 1007.2
20260904021827 84 289 20.0 29.0 0.00 0.00 0.00 29 1007.2
20260904021322 85 288 19.0 26.0 0.00 0.00 0.00 28 1007.3
20260904020814 85 304 18.0 25.0 0.00 0.00 0.00 28 1007.2
20260904020325 86 298 18.0 31.0 0.00 0.00 0.00 28 1007.3
20260904015815 86 302 19.0 31.0 0.00 0.00 0.00 27 1007.3
20260904015326 87 298 20.0 26.0 0.00 0.00 0.00 27 1007.3
20260904014819 87 291 20.0 26.0 0.00 0.00 0.00 26 1007.2